Location: Newark
(41.1142°N, 73.9831°W)
Time: 07:29:49
(UTC+00:00)

N. Korean satellite - Pass Details

Date: 23 September 2019
Orbit: 455 x 508 km, 97.2° (Epoch: 22 October)

Event Time Altitude Azimuth Distance (km) Brightness Sun altitude
Rises 10:00:16 0° 30° (NNE) 2,479 10.8 -9.1°
Reaches altitude 10° 10:02:54 10° 52° (NE) 1,601 10.2 -8.6°
Maximum altitude 10:05:09 16° 93° (E) 1,256 10.0 -8.2°
Drops below altitude 10° 10:07:24 10° 135° (SE) 1,598 9.8 -7.7°
Sets 10:10:00 0° 157° (SSE) 2,473 10.4 -7.3°
